contact:dominique.lefevre@mio.osupytheas.fr, maurice.libes@osupytheas.fr, didier.mallarino@osupytheas.fr
Project:EMSO http://www.emso-fr.org/EMSO-France
Depth: 2436.0 m
Title:EMSO Ligure Ouest : Data MII capteur MICROCAT
DateTime_Computer,Latitude,Longitude,Temperature,Conductivity,Pressure,DateTime_Instrument
DateTime_Computer,Latitude,Longitude,degC,S m-1,dbar,DateTime_Instrument
2022-06-17T00:02:43Z,42.805,6.029,13.3011,4.60069,2470.646,2022-6-17T02:04:27Z
2022-06-17T00:05:46Z,42.805,6.029,13.3014,4.60065,2470.693,2022-6-17T02:07:30Z
2022-06-17T00:08:49Z,42.805,6.029,13.3009,4.60051,2470.693,2022-6-17T02:10:33Z
2022-06-17T00:11:53Z,42.805,6.029,13.3009,4.60054,2470.67,2022-6-17T02:13:36Z
2022-06-17T00:14:56Z,42.805,6.029,13.3012,4.60054,2470.67,2022-6-17T02:16:39Z
2022-06-17T00:17:59Z,42.805,6.029,13.3012,4.60054,2470.67,2022-6-17T02:19:42Z
2022-06-17T00:21:02Z,42.805,6.029,13.3014,4.60059,2470.646,2022-6-17T02:22:46Z
2022-06-17T00:24:05Z,42.805,6.029,13.3006,4.60056,2470.684,2022-6-17T02:25:49Z
2022-06-17T00:27:08Z,42.805,6.029,13.3014,4.60057,2470.624,2022-6-17T02:28:52Z
2022-06-17T00:30:11Z,42.805,6.029,13.3012,4.60052,2470.624,2022-6-17T02:31:55Z
2022-06-17T00:33:14Z,42.805,6.029,13.3008,4.60050,2470.693,2022-6-17T02:34:58Z
2022-06-17T00:36:18Z,42.805,6.029,13.3009,4.60057,2470.646,2022-6-17T02:38:01Z
2022-06-17T00:39:21Z,42.805,6.029,13.3009,4.60049,2470.646,2022-6-17T02:41:04Z
2022-06-17T00:42:24Z,42.805,6.029,13.3009,4.60053,2470.646,2022-6-17T02:44:07Z
2022-06-17T00:45:27Z,42.805,6.029,13.3011,4.60046,2470.624,2022-6-17T02:47:11Z
2022-06-17T00:48:30Z,42.805,6.029,13.3006,4.60052,2470.646,2022-6-17T02:50:14Z
2022-06-17T00:51:33Z,42.805,6.029,13.3012,4.60048,2470.661,2022-6-17T02:53:17Z
2022-06-17T00:54:36Z,42.805,6.029,13.3011,4.60060,2470.646,2022-6-17T02:56:20Z
2022-06-17T00:57:39Z,42.805,6.029,13.3008,4.60054,2470.646,2022-6-17T02:59:23Z
2022-06-17T01:00:43Z,42.805,6.029,13.3007,4.60049,2470.646,2022-6-17T03:02:26Z
2022-06-17T01:03:46Z,42.805,6.029,13.3006,4.60044,2470.637,2022-6-17T03:05:29Z
2022-06-17T01:06:49Z,42.805,6.029,13.3013,4.60054,2470.6,2022-6-17T03:08:32Z
2022-06-17T01:09:52Z,42.805,6.029,13.3007,4.60051,2470.624,2022-6-17T03:11:35Z
2022-06-17T01:12:55Z,42.805,6.029,13.3009,4.60047,2470.646,2022-6-17T03:14:39Z
2022-06-17T01:15:58Z,42.805,6.029,13.3011,4.60049,2470.624,2022-6-17T03:17:42Z
2022-06-17T01:19:01Z,42.805,6.029,13.3009,4.60053,2470.646,2022-6-17T03:20:45Z
2022-06-17T01:22:04Z,42.805,6.029,13.3008,4.60056,2470.624,2022-6-17T03:23:48Z
2022-06-17T01:25:08Z,42.805,6.029,13.3011,4.60056,2470.637,2022-6-17T03:26:51Z
2022-06-17T01:28:11Z,42.805,6.029,13.3004,4.60058,2470.637,2022-6-17T03:29:54Z
2022-06-17T01:31:14Z,42.805,6.029,13.3009,4.60060,2470.646,2022-6-17T03:32:57Z
2022-06-17T01:34:17Z,42.805,6.029,13.3011,4.60054,2470.637,2022-6-17T03:36:00Z
2022-06-17T01:37:20Z,42.805,6.029,13.3011,4.60052,2470.6,2022-6-17T03:39:04Z
2022-06-17T01:40:23Z,42.805,6.029,13.3011,4.60056,2470.624,2022-6-17T03:42:07Z
2022-06-17T01:43:26Z,42.805,6.029,13.3008,4.60052,2470.591,2022-6-17T03:45:10Z
2022-06-17T01:46:29Z,42.805,6.029,13.3012,4.60062,2470.6,2022-6-17T03:48:13Z
2022-06-17T01:49:32Z,42.805,6.029,13.3013,4.60057,2470.6,2022-6-17T03:51:16Z
2022-06-17T01:52:36Z,42.805,6.029,13.3012,4.60052,2470.614,2022-6-17T03:54:19Z
2022-06-17T01:55:39Z,42.805,6.029,13.3006,4.60051,2470.553,2022-6-17T03:57:22Z
2022-06-17T01:58:42Z,42.805,6.029,13.3009,4.60062,2470.591,2022-6-17T04:00:25Z
2022-06-17T02:01:45Z,42.805,6.029,13.3015,4.60062,2470.577,2022-6-17T04:03:29Z
2022-06-17T02:04:48Z,42.805,6.029,13.3017,4.60059,2470.591,2022-6-17T04:06:32Z
2022-06-17T02:07:51Z,42.805,6.029,13.3013,4.60057,2470.567,2022-6-17T04:09:35Z
2022-06-17T02:10:54Z,42.805,6.029,13.3012,4.60047,2470.577,2022-6-17T04:12:38Z
2022-06-17T02:13:57Z,42.805,6.029,13.3011,4.60052,2470.577,2022-6-17T04:15:41Z
2022-06-17T02:17:01Z,42.805,6.029,13.3011,4.60051,2470.591,2022-6-17T04:18:44Z
2022-06-17T02:20:04Z,42.805,6.029,13.3012,4.60054,2470.553,2022-6-17T04:21:47Z
2022-06-17T02:23:07Z,42.805,6.029,13.3009,4.60047,2470.567,2022-6-17T04:24:50Z
2022-06-17T02:26:10Z,42.805,6.029,13.3009,4.60055,2470.553,2022-6-17T04:27:54Z
2022-06-17T02:29:13Z,42.805,6.029,13.3014,4.60057,2470.553,2022-6-17T04:30:57Z
2022-06-17T02:32:16Z,42.805,6.029,13.3016,4.60066,2470.567,2022-6-17T04:34:00Z
2022-06-17T02:35:19Z,42.805,6.029,13.3008,4.60067,2470.553,2022-6-17T04:37:03Z
2022-06-17T02:38:22Z,42.805,6.029,13.3013,4.60060,2470.553,2022-6-17T04:40:06Z
2022-06-17T02:41:26Z,42.805,6.029,13.3011,4.60060,2470.544,2022-6-17T04:43:09Z
2022-06-17T02:44:29Z,42.805,6.029,13.3012,4.60058,2470.567,2022-6-17T04:46:12Z
2022-06-17T02:47:32Z,42.805,6.029,13.3013,4.60053,2470.567,2022-6-17T04:49:15Z
2022-06-17T02:50:35Z,42.805,6.029,13.3012,4.60059,2470.53,2022-6-17T04:52:18Z
2022-06-17T02:53:38Z,42.805,6.029,13.3014,4.60063,2470.53,2022-6-17T04:55:22Z
2022-06-17T02:56:41Z,42.805,6.029,13.3009,4.60057,2470.567,2022-6-17T04:58:25Z
2022-06-17T02:59:44Z,42.805,6.029,13.3013,4.60062,2470.507,2022-6-17T05:01:28Z
2022-06-17T03:02:47Z,42.805,6.029,13.3011,4.60069,2470.544,2022-6-17T05:04:31Z
2022-06-17T03:05:50Z,42.805,6.029,13.3008,4.60057,2470.544,2022-6-17T05:07:34Z
2022-06-17T03:08:54Z,42.805,6.029,13.3007,4.60060,2470.507,2022-6-17T05:10:37Z
2022-06-17T03:11:57Z,42.805,6.029,13.3011,4.60057,2470.507,2022-6-17T05:13:40Z
2022-06-17T03:15:00Z,42.805,6.029,13.3016,4.60062,2470.507,2022-6-17T05:16:43Z
2022-06-17T03:18:03Z,42.805,6.029,13.3010,4.60049,2470.52,2022-6-17T05:19:47Z
2022-06-17T03:21:06Z,42.805,6.029,13.3009,4.60057,2470.52,2022-6-17T05:22:50Z
2022-06-17T03:24:09Z,42.805,6.029,13.3010,4.60057,2470.507,2022-6-17T05:25:53Z
2022-06-17T03:27:12Z,42.805,6.029,13.3008,4.60052,2470.507,2022-6-17T05:28:56Z
2022-06-17T03:30:15Z,42.805,6.029,13.3014,4.60054,2470.53,2022-6-17T05:31:59Z
2022-06-17T03:33:19Z,42.805,6.029,13.3014,4.60056,2470.544,2022-6-17T05:35:02Z
2022-06-17T03:36:22Z,42.805,6.029,13.3010,4.60045,2470.53,2022-6-17T05:38:05Z
2022-06-17T03:39:25Z,42.805,6.029,13.3010,4.60059,2470.507,2022-6-17T05:41:08Z
2022-06-17T03:42:28Z,42.805,6.029,13.3011,4.60054,2470.507,2022-6-17T05:44:12Z
2022-06-17T03:45:31Z,42.805,6.029,13.3008,4.60059,2470.507,2022-6-17T05:47:15Z
2022-06-17T03:48:34Z,42.805,6.029,13.3011,4.60063,2470.483,2022-6-17T05:50:18Z
2022-06-17T03:51:37Z,42.805,6.029,13.3009,4.60058,2470.507,2022-6-17T05:53:21Z
2022-06-17T03:54:40Z,42.805,6.029,13.3009,4.60055,2470.507,2022-6-17T05:56:24Z
2022-06-17T03:57:44Z,42.805,6.029,13.3022,4.60062,2470.497,2022-6-17T05:59:27Z
2022-06-17T04:00:47Z,42.805,6.029,13.3013,4.60058,2470.474,2022-6-17T06:02:30Z
2022-06-17T04:03:50Z,42.805,6.029,13.3011,4.60060,2470.52,2022-6-17T06:05:33Z
2022-06-17T04:06:53Z,42.805,6.029,13.3012,4.60057,2470.483,2022-6-17T06:08:37Z
2022-06-17T04:09:56Z,42.805,6.029,13.3012,4.60051,2470.497,2022-6-17T06:11:40Z
2022-06-17T04:12:59Z,42.805,6.029,13.3014,4.60064,2470.507,2022-6-17T06:14:43Z
2022-06-17T04:16:02Z,42.805,6.029,13.3011,4.60059,2470.53,2022-6-17T06:17:46Z
2022-06-17T04:19:05Z,42.805,6.029,13.3018,4.60062,2470.497,2022-6-17T06:20:49Z
2022-06-17T04:22:09Z,42.805,6.029,13.3013,4.60062,2470.507,2022-6-17T06:23:52Z
2022-06-17T04:25:12Z,42.805,6.029,13.3014,4.60052,2470.507,2022-6-17T06:26:55Z
2022-06-17T04:28:15Z,42.805,6.029,13.3009,4.60052,2470.483,2022-6-17T06:29:58Z
2022-06-17T04:31:18Z,42.805,6.029,13.3013,4.60057,2470.553,2022-6-17T06:33:01Z
2022-06-17T04:34:21Z,42.805,6.029,13.3012,4.60055,2470.507,2022-6-17T06:36:05Z
2022-06-17T04:37:24Z,42.805,6.029,13.3011,4.60062,2470.507,2022-6-17T06:39:08Z
2022-06-17T04:40:27Z,42.805,6.029,13.3013,4.60058,2470.483,2022-6-17T06:42:11Z
2022-06-17T04:43:30Z,42.805,6.029,13.3005,4.60055,2470.52,2022-6-17T06:45:14Z
2022-06-17T04:46:33Z,42.805,6.029,13.3021,4.60057,2470.483,2022-6-17T06:48:17Z
2022-06-17T04:49:37Z,42.805,6.029,13.3013,4.60057,2470.52,2022-6-17T06:51:20Z
2022-06-17T04:52:40Z,42.805,6.029,13.3017,4.60062,2470.507,2022-6-17T06:54:23Z
2022-06-17T04:55:43Z,42.805,6.029,13.3013,4.60067,2470.507,2022-6-17T06:57:26Z
2022-06-17T04:58:46Z,42.805,6.029,13.3010,4.60056,2470.507,2022-6-17T07:00:30Z
2022-06-17T05:01:49Z,42.805,6.029,13.3021,4.60067,2470.46,2022-6-17T07:03:33Z
2022-06-17T05:04:52Z,42.805,6.029,13.3013,4.60072,2470.544,2022-6-17T07:06:36Z
2022-06-17T05:07:55Z,42.805,6.029,13.3010,4.60066,2470.497,2022-6-17T07:09:39Z
2022-06-17T05:10:58Z,42.805,6.029,13.3013,4.60068,2470.507,2022-6-17T07:12:42Z
2022-06-17T05:14:02Z,42.805,6.029,13.3020,4.60067,2470.483,2022-6-17T07:15:45Z
2022-06-17T05:17:05Z,42.805,6.029,13.3011,4.60057,2470.483,2022-6-17T07:18:48Z
2022-06-17T05:20:08Z,42.805,6.029,13.3010,4.60059,2470.544,2022-6-17T07:21:51Z
2022-06-17T05:23:11Z,42.805,6.029,13.3015,4.60056,2470.544,2022-6-17T07:24:55Z
2022-06-17T05:26:14Z,42.805,6.029,13.3011,4.60059,2470.53,2022-6-17T07:27:58Z
2022-06-17T05:29:17Z,42.805,6.029,13.3015,4.60063,2470.507,2022-6-17T07:31:01Z
2022-06-17T05:32:20Z,42.805,6.029,13.3014,4.60066,2470.507,2022-6-17T07:34:04Z
2022-06-17T05:35:23Z,42.805,6.029,13.3011,4.60066,2470.497,2022-6-17T07:37:07Z
2022-06-17T05:38:27Z,42.805,6.029,13.3017,4.60060,2470.53,2022-6-17T07:40:10Z
2022-06-17T05:41:30Z,42.805,6.029,13.3013,4.60066,2470.507,2022-6-17T07:43:13Z
2022-06-17T05:44:33Z,42.805,6.029,13.3014,4.60064,2470.507,2022-6-17T07:46:16Z
2022-06-17T05:47:36Z,42.805,6.029,13.3019,4.60061,2470.497,2022-6-17T07:49:20Z
2022-06-17T05:50:39Z,42.805,6.029,13.3011,4.60054,2470.53,2022-6-17T07:52:23Z
2022-06-17T05:53:42Z,42.805,6.029,13.3014,4.60064,2470.53,2022-6-17T07:55:26Z
2022-06-17T05:56:45Z,42.805,6.029,13.3010,4.60061,2470.544,2022-6-17T07:58:29Z
2022-06-17T05:59:48Z,42.805,6.029,13.3011,4.60061,2470.507,2022-6-17T08:01:32Z
2022-06-17T06:02:51Z,42.805,6.029,13.3014,4.60062,2470.553,2022-6-17T08:04:35Z
2022-06-17T06:05:55Z,42.805,6.029,13.3009,4.60062,2470.53,2022-6-17T08:07:38Z
2022-06-17T06:08:58Z,42.805,6.029,13.3013,4.60059,2470.53,2022-6-17T08:10:41Z
2022-06-17T06:12:01Z,42.805,6.029,13.3020,4.60062,2470.507,2022-6-17T08:13:44Z
2022-06-17T06:15:04Z,42.805,6.029,13.3010,4.60052,2470.553,2022-6-17T08:16:48Z
2022-06-17T06:18:07Z,42.805,6.029,13.3008,4.60066,2470.53,2022-6-17T08:19:51Z
2022-06-17T06:21:10Z,42.805,6.029,13.3014,4.60072,2470.52,2022-6-17T08:22:54Z
2022-06-17T06:24:13Z,42.805,6.029,13.3017,4.60068,2470.507,2022-6-17T08:25:57Z
2022-06-17T06:27:16Z,42.805,6.029,13.3013,4.60067,2470.507,2022-6-17T08:29:00Z
2022-06-17T06:30:20Z,42.805,6.029,13.3018,4.60067,2470.567,2022-6-17T08:32:03Z
2022-06-17T06:33:23Z,42.805,6.029,13.3019,4.60073,2470.53,2022-6-17T08:35:06Z
2022-06-17T06:36:26Z,42.805,6.029,13.3012,4.60053,2470.53,2022-6-17T08:38:09Z
2022-06-17T06:39:29Z,42.805,6.029,13.3016,4.60068,2470.577,2022-6-17T08:41:13Z
2022-06-17T06:42:32Z,42.805,6.029,13.3008,4.60062,2470.553,2022-6-17T08:44:16Z
2022-06-17T06:45:35Z,42.805,6.029,13.3006,4.60054,2470.567,2022-6-17T08:47:19Z
2022-06-17T06:48:38Z,42.805,6.029,13.3011,4.60054,2470.553,2022-6-17T08:50:22Z
2022-06-17T06:51:41Z,42.805,6.029,13.3015,4.60057,2470.553,2022-6-17T08:53:25Z
2022-06-17T06:54:45Z,42.805,6.029,13.3009,4.60056,2470.591,2022-6-17T08:56:28Z
2022-06-17T06:57:48Z,42.805,6.029,13.3008,4.60060,2470.591,2022-6-17T08:59:31Z
2022-06-17T07:00:51Z,42.805,6.029,13.3015,4.60054,2470.553,2022-6-17T09:02:34Z
2022-06-17T07:03:54Z,42.805,6.029,13.3017,4.60058,2470.6,2022-6-17T09:05:38Z
2022-06-17T07:06:57Z,42.805,6.029,13.3015,4.60058,2470.591,2022-6-17T09:08:41Z
2022-06-17T07:10:00Z,42.805,6.029,13.3011,4.60054,2470.6,2022-6-17T09:11:44Z
2022-06-17T07:13:03Z,42.805,6.029,13.3012,4.60057,2470.553,2022-6-17T09:14:47Z
2022-06-17T07:16:06Z,42.805,6.029,13.3009,4.60050,2470.624,2022-6-17T09:17:50Z
2022-06-17T07:19:10Z,42.805,6.029,13.3009,4.60049,2470.591,2022-6-17T09:20:53Z
2022-06-17T07:22:13Z,42.805,6.029,13.3010,4.60051,2470.577,2022-6-17T09:23:56Z
2022-06-17T07:25:16Z,42.805,6.029,13.3011,4.60057,2470.637,2022-6-17T09:26:59Z
2022-06-17T07:28:19Z,42.805,6.029,13.3011,4.60072,2470.591,2022-6-17T09:30:03Z
2022-06-17T07:31:22Z,42.805,6.029,13.3019,4.60062,2470.577,2022-6-17T09:33:06Z
2022-06-17T07:34:25Z,42.805,6.029,13.3011,4.60057,2470.624,2022-6-17T09:36:09Z
2022-06-17T07:37:28Z,42.805,6.029,13.3009,4.60067,2470.614,2022-6-17T09:39:12Z
2022-06-17T07:40:31Z,42.805,6.029,13.3009,4.60054,2470.539,2022-6-17T09:42:15Z
2022-06-17T07:43:34Z,42.805,6.029,13.3015,4.60060,2470.591,2022-6-17T09:45:18Z
2022-06-17T07:46:38Z,42.805,6.029,13.3014,4.60052,2470.577,2022-6-17T09:48:21Z
2022-06-17T07:49:41Z,42.805,6.029,13.3020,4.60066,2470.577,2022-6-17T09:51:24Z
2022-06-17T07:52:44Z,42.805,6.029,13.3013,4.60062,2470.624,2022-6-17T09:54:27Z
2022-06-17T07:55:47Z,42.805,6.029,13.3015,4.60058,2470.591,2022-6-17T09:57:31Z
2022-06-17T07:58:50Z,42.805,6.029,13.3010,4.60053,2470.6,2022-6-17T10:00:34Z
2022-06-17T08:01:53Z,42.805,6.029,13.3010,4.60052,2470.577,2022-6-17T10:03:37Z
2022-06-17T08:04:56Z,42.805,6.029,13.3010,4.60054,2470.577,2022-6-17T10:06:40Z
2022-06-17T08:07:59Z,42.805,6.029,13.3010,4.60055,2470.624,2022-6-17T10:09:43Z
2022-06-17T08:11:03Z,42.805,6.029,13.3014,4.60057,2470.577,2022-6-17T10:12:46Z
2022-06-17T08:14:06Z,42.805,6.029,13.3011,4.60066,2470.6,2022-6-17T10:15:49Z
2022-06-17T08:17:09Z,42.805,6.029,13.3016,4.60058,2470.577,2022-6-17T10:18:52Z
2022-06-17T08:20:12Z,42.805,6.029,13.3012,4.60060,2470.624,2022-6-17T10:21:56Z
2022-06-17T08:23:15Z,42.805,6.029,13.3012,4.60062,2470.624,2022-6-17T10:24:59Z
2022-06-17T08:26:18Z,42.805,6.029,13.3013,4.60054,2470.6,2022-6-17T10:28:02Z
2022-06-17T08:29:21Z,42.805,6.029,13.3014,4.60058,2470.614,2022-6-17T10:31:05Z
2022-06-17T08:32:24Z,42.805,6.029,13.3012,4.60055,2470.624,2022-6-17T10:34:08Z
2022-06-17T08:35:28Z,42.805,6.029,13.3009,4.60063,2470.591,2022-6-17T10:37:11Z
2022-06-17T08:38:31Z,42.805,6.029,13.3011,4.60056,2470.6,2022-6-17T10:40:14Z
2022-06-17T08:41:34Z,42.805,6.029,13.3018,4.60055,2470.637,2022-6-17T10:43:17Z
2022-06-17T08:44:37Z,42.805,6.029,13.3012,4.60058,2470.624,2022-6-17T10:46:21Z
2022-06-17T08:47:40Z,42.805,6.029,13.3006,4.60049,2470.61,2022-6-17T10:49:24Z
2022-06-17T08:50:43Z,42.805,6.029,13.3010,4.60050,2470.624,2022-6-17T10:52:27Z
2022-06-17T08:53:46Z,42.805,6.029,13.3009,4.60049,2470.6,2022-6-17T10:55:30Z
2022-06-17T08:56:49Z,42.805,6.029,13.3012,4.60056,2470.6,2022-6-17T10:58:33Z
2022-06-17T08:59:53Z,42.805,6.029,13.3011,4.60057,2470.614,2022-6-17T11:01:36Z
2022-06-17T09:02:56Z,42.805,6.029,13.3013,4.60056,2470.577,2022-6-17T11:04:39Z
2022-06-17T09:05:59Z,42.805,6.029,13.3006,4.60050,2470.6,2022-6-17T11:07:43Z
2022-06-17T09:09:02Z,42.805,6.029,13.3008,4.60053,2470.624,2022-6-17T11:10:46Z
2022-06-17T09:12:05Z,42.805,6.029,13.3011,4.60051,2470.6,2022-6-17T11:13:49Z
2022-06-17T09:15:08Z,42.805,6.029,13.3011,4.60049,2470.577,2022-6-17T11:16:52Z
2022-06-17T09:18:11Z,42.805,6.029,13.3009,4.60067,2470.6,2022-6-17T11:19:55Z
2022-06-17T09:21:14Z,42.805,6.029,13.3012,4.60054,2470.577,2022-6-17T11:22:58Z
2022-06-17T09:24:18Z,42.805,6.029,13.3019,4.60065,2470.567,2022-6-17T11:26:01Z
2022-06-17T09:27:21Z,42.805,6.029,13.3009,4.60053,2470.6,2022-6-17T11:29:04Z
2022-06-17T09:30:24Z,42.805,6.029,13.3014,4.60060,2470.591,2022-6-17T11:32:07Z
2022-06-17T09:33:27Z,42.805,6.029,13.3022,4.60063,2470.577,2022-6-17T11:35:11Z
2022-06-17T09:36:30Z,42.805,6.029,13.3018,4.60054,2470.577,2022-6-17T11:38:14Z
2022-06-17T09:39:33Z,42.805,6.029,13.3008,4.60059,2470.614,2022-6-17T11:41:17Z
2022-06-17T09:42:36Z,42.805,6.029,13.3008,4.60057,2470.567,2022-6-17T11:44:20Z
2022-06-17T09:45:39Z,42.805,6.029,13.3012,4.60062,2470.614,2022-6-17T11:47:23Z
2022-06-17T09:48:43Z,42.805,6.029,13.3010,4.60066,2470.624,2022-6-17T11:50:26Z
2022-06-17T09:51:46Z,42.805,6.029,13.3009,4.60057,2470.591,2022-6-17T11:53:29Z
2022-06-17T09:54:49Z,42.805,6.029,13.3011,4.60049,2470.614,2022-6-17T11:56:33Z
2022-06-17T09:57:52Z,42.805,6.029,13.3010,4.60051,2470.577,2022-6-17T11:59:36Z
2022-06-17T10:00:55Z,42.805,6.029,13.3011,4.60052,2470.614,2022-6-17T12:02:39Z
2022-06-17T10:03:58Z,42.805,6.029,13.3010,4.60052,2470.591,2022-6-17T12:05:42Z
2022-06-17T10:07:01Z,42.805,6.029,13.3008,4.60047,2470.577,2022-6-17T12:08:45Z
2022-06-17T10:10:05Z,42.805,6.029,13.3011,4.60060,2470.6,2022-6-17T12:11:48Z
2022-06-17T10:13:08Z,42.805,6.029,13.3013,4.60067,2470.591,2022-6-17T12:14:51Z
2022-06-17T10:16:11Z,42.805,6.029,13.3009,4.60078,2470.567,2022-6-17T12:17:54Z
2022-06-17T10:19:14Z,42.805,6.029,13.3009,4.60060,2470.577,2022-6-17T12:20:58Z
2022-06-17T10:22:17Z,42.805,6.029,13.3014,4.60067,2470.591,2022-6-17T12:24:01Z
2022-06-17T10:25:20Z,42.805,6.029,13.3011,4.60052,2470.577,2022-6-17T12:27:04Z
2022-06-17T10:28:23Z,42.805,6.029,13.3013,4.60051,2470.553,2022-6-17T12:30:07Z
2022-06-17T10:31:26Z,42.805,6.029,13.3011,4.60050,2470.567,2022-6-17T12:33:10Z
2022-06-17T10:34:30Z,42.805,6.029,13.3007,4.60049,2470.553,2022-6-17T12:36:13Z
2022-06-17T10:37:33Z,42.805,6.029,13.3015,4.60051,2470.553,2022-6-17T12:39:16Z
2022-06-17T10:40:36Z,42.805,6.029,13.3006,4.60053,2470.553,2022-6-17T12:42:19Z
2022-06-17T10:43:39Z,42.805,6.029,13.3009,4.60068,2470.567,2022-6-17T12:45:23Z
2022-06-17T10:46:42Z,42.805,6.029,13.3009,4.60054,2470.6,2022-6-17T12:48:26Z
2022-06-17T10:49:45Z,42.805,6.029,13.3014,4.60076,2470.591,2022-6-17T12:51:29Z
2022-06-17T10:52:48Z,42.805,6.029,13.3011,4.60050,2470.577,2022-6-17T12:54:32Z
2022-06-17T10:55:51Z,42.805,6.029,13.3013,4.60062,2470.553,2022-6-17T12:57:35Z
2022-06-17T10:58:55Z,42.805,6.029,13.3006,4.60064,2470.591,2022-6-17T13:00:38Z
2022-06-17T11:01:58Z,42.805,6.029,13.3010,4.60052,2470.553,2022-6-17T13:03:41Z
2022-06-17T11:05:01Z,42.805,6.029,13.3010,4.60055,2470.567,2022-6-17T13:06:44Z
2022-06-17T11:08:04Z,42.805,6.029,13.3006,4.60049,2470.53,2022-6-17T13:09:48Z
2022-06-17T11:11:07Z,42.805,6.029,13.3009,4.60067,2470.591,2022-6-17T13:12:51Z
2022-06-17T11:14:10Z,42.805,6.029,13.3014,4.60072,2470.507,2022-6-17T13:15:54Z
2022-06-17T11:17:13Z,42.805,6.029,13.3015,4.60058,2470.53,2022-6-17T13:18:57Z
2022-06-17T11:20:16Z,42.805,6.029,13.3009,4.60064,2470.544,2022-6-17T13:22:00Z
2022-06-17T11:23:20Z,42.805,6.029,13.3009,4.60049,2470.553,2022-6-17T13:25:03Z
2022-06-17T11:26:23Z,42.805,6.029,13.3011,4.60055,2470.567,2022-6-17T13:28:06Z
2022-06-17T11:29:26Z,42.805,6.029,13.3015,4.60055,2470.507,2022-6-17T13:31:09Z
2022-06-17T11:32:29Z,42.805,6.029,13.3019,4.60061,2470.553,2022-6-17T13:34:13Z
2022-06-17T11:35:32Z,42.805,6.029,13.3014,4.60050,2470.567,2022-6-17T13:37:16Z
2022-06-17T11:38:35Z,42.805,6.029,13.3006,4.60056,2470.507,2022-6-17T13:40:19Z
2022-06-17T11:41:38Z,42.805,6.029,13.3014,4.60051,2470.53,2022-6-17T13:43:22Z
2022-06-17T11:44:41Z,42.805,6.029,13.3014,4.60064,2470.567,2022-6-17T13:46:25Z
2022-06-17T11:47:45Z,42.805,6.029,13.3012,4.60060,2470.553,2022-6-17T13:49:28Z
2022-06-17T11:50:48Z,42.805,6.029,13.3015,4.60061,2470.567,2022-6-17T13:52:31Z
2022-06-17T11:53:51Z,42.805,6.029,13.3021,4.60063,2470.53,2022-6-17T13:55:34Z
2022-06-17T11:56:54Z,42.805,6.029,13.3008,4.60050,2470.553,2022-6-17T13:58:38Z
2022-06-17T11:59:57Z,42.805,6.029,13.3012,4.60051,2470.53,2022-6-17T14:01:41Z
2022-06-17T12:03:00Z,42.805,6.029,13.3013,4.60051,2470.53,2022-6-17T14:04:44Z
2022-06-17T12:06:03Z,42.805,6.029,13.3009,4.60052,2470.544,2022-6-17T14:07:47Z
2022-06-17T12:09:06Z,42.805,6.029,13.3013,4.60054,2470.553,2022-6-17T14:10:50Z
2022-06-17T12:12:10Z,42.805,6.029,13.3015,4.60052,2470.52,2022-6-17T14:13:53Z
2022-06-17T12:15:13Z,42.805,6.029,13.3014,4.60069,2470.52,2022-6-17T14:16:56Z
2022-06-17T12:18:16Z,42.805,6.029,13.3010,4.60054,2470.544,2022-6-17T14:19:59Z
2022-06-17T12:21:19Z,42.805,6.029,13.3010,4.60055,2470.53,2022-6-17T14:23:03Z
2022-06-17T12:24:22Z,42.805,6.029,13.3012,4.60060,2470.53,2022-6-17T14:26:06Z
2022-06-17T12:27:25Z,42.805,6.029,13.3010,4.60058,2470.507,2022-6-17T14:29:09Z
2022-06-17T12:30:28Z,42.805,6.029,13.3009,4.60056,2470.544,2022-6-17T14:32:12Z
2022-06-17T12:33:31Z,42.805,6.029,13.3014,4.60058,2470.507,2022-6-17T14:35:15Z
2022-06-17T12:36:35Z,42.805,6.029,13.3010,4.60058,2470.53,2022-6-17T14:38:18Z
2022-06-17T12:39:38Z,42.805,6.029,13.3011,4.60069,2470.483,2022-6-17T14:41:21Z
2022-06-17T12:42:41Z,42.805,6.029,13.3016,4.60054,2470.474,2022-6-17T14:44:24Z
2022-06-17T12:45:44Z,42.805,6.029,13.3015,4.60067,2470.52,2022-6-17T14:47:28Z
2022-06-17T12:48:47Z,42.805,6.029,13.3011,4.60060,2470.497,2022-6-17T14:50:31Z
2022-06-17T12:51:50Z,42.805,6.029,13.3011,4.60049,2470.507,2022-6-17T14:53:34Z
2022-06-17T12:54:53Z,42.805,6.029,13.3011,4.60066,2470.507,2022-6-17T14:56:37Z
2022-06-17T12:57:56Z,42.805,6.029,13.3006,4.60054,2470.507,2022-6-17T14:59:40Z
2022-06-17T13:01:00Z,42.805,6.029,13.3014,4.60054,2470.497,2022-6-17T15:02:43Z
2022-06-17T13:04:03Z,42.805,6.029,13.3013,4.60057,2470.493,2022-6-17T15:05:46Z
2022-06-17T13:07:06Z,42.805,6.029,13.3009,4.60059,2470.507,2022-6-17T15:08:49Z
2022-06-17T13:10:09Z,42.805,6.029,13.3007,4.60046,2470.437,2022-6-17T15:11:53Z
2022-06-17T13:13:12Z,42.805,6.029,13.3012,4.60055,2470.474,2022-6-17T15:14:56Z
2022-06-17T13:16:15Z,42.805,6.029,13.3009,4.60051,2470.46,2022-6-17T15:17:59Z
2022-06-17T13:19:18Z,42.805,6.029,13.3009,4.60047,2470.474,2022-6-17T15:21:02Z
2022-06-17T13:22:21Z,42.805,6.029,13.3011,4.60054,2470.52,2022-6-17T15:24:05Z
2022-06-17T13:25:25Z,42.805,6.029,13.3011,4.60048,2470.46,2022-6-17T15:27:08Z
2022-06-17T13:28:28Z,42.805,6.029,13.3013,4.60049,2470.483,2022-6-17T15:30:11Z
2022-06-17T13:31:31Z,42.805,6.029,13.3007,4.60049,2470.474,2022-6-17T15:33:14Z
2022-06-17T13:34:34Z,42.805,6.029,13.3010,4.60068,2470.497,2022-6-17T15:36:18Z
2022-06-17T13:37:37Z,42.805,6.029,13.3014,4.60047,2470.474,2022-6-17T15:39:21Z
2022-06-17T13:40:40Z,42.805,6.029,13.3011,4.60049,2470.437,2022-6-17T15:42:24Z
2022-06-17T13:43:43Z,42.805,6.029,13.3016,4.60067,2470.46,2022-6-17T15:45:27Z
2022-06-17T13:46:46Z,42.805,6.029,13.3011,4.60057,2470.474,2022-6-17T15:48:30Z
2022-06-17T13:49:50Z,42.805,6.029,13.3014,4.60053,2470.413,2022-6-17T15:51:33Z
2022-06-17T13:52:53Z,42.805,6.029,13.3014,4.60053,2470.46,2022-6-17T15:54:36Z
2022-06-17T13:55:56Z,42.805,6.029,13.3012,4.60058,2470.474,2022-6-17T15:57:39Z
2022-06-17T13:58:59Z,42.805,6.029,13.3007,4.60043,2470.46,2022-6-17T16:00:43Z
2022-06-17T14:02:02Z,42.805,6.029,13.3007,4.60046,2470.45,2022-6-17T16:03:46Z
2022-06-17T14:05:05Z,42.805,6.029,13.3009,4.60049,2470.46,2022-6-17T16:06:49Z
2022-06-17T14:08:08Z,42.805,6.029,13.3011,4.60057,2470.474,2022-6-17T16:09:52Z
2022-06-17T14:11:11Z,42.805,6.029,13.3014,4.60059,2470.474,2022-6-17T16:12:55Z
2022-06-17T14:14:15Z,42.805,6.029,13.3011,4.60064,2470.474,2022-6-17T16:15:58Z
2022-06-17T14:17:18Z,42.805,6.029,13.3010,4.60050,2470.497,2022-6-17T16:19:01Z
2022-06-17T14:20:21Z,42.805,6.029,13.3010,4.60051,2470.483,2022-6-17T16:22:05Z
2022-06-17T14:23:24Z,42.805,6.029,13.3015,4.60050,2470.413,2022-6-17T16:25:08Z
2022-06-17T14:26:27Z,42.805,6.029,13.3011,4.60053,2470.474,2022-6-17T16:28:11Z
2022-06-17T14:29:30Z,42.805,6.029,13.3009,4.60054,2470.46,2022-6-17T16:31:14Z
2022-06-17T14:32:33Z,42.805,6.029,13.3010,4.60050,2470.427,2022-6-17T16:34:17Z
2022-06-17T14:35:36Z,42.805,6.029,13.3007,4.60052,2470.45,2022-6-17T16:37:20Z
2022-06-17T14:38:40Z,42.805,6.029,13.3008,4.60053,2470.413,2022-6-17T16:40:23Z
2022-06-17T14:41:43Z,42.805,6.029,13.3015,4.60060,2470.45,2022-6-17T16:43:26Z
2022-06-17T14:44:46Z,42.805,6.029,13.3009,4.60050,2470.437,2022-6-17T16:46:30Z
2022-06-17T14:47:49Z,42.805,6.029,13.3011,4.60051,2470.437,2022-6-17T16:49:33Z
2022-06-17T14:50:52Z,42.805,6.029,13.3009,4.60051,2470.474,2022-6-17T16:52:36Z
2022-06-17T14:53:55Z,42.805,6.029,13.3030,4.60056,2470.45,2022-6-17T16:55:39Z
2022-06-17T14:56:58Z,42.805,6.029,13.3009,4.60046,2470.437,2022-6-17T16:58:42Z
2022-06-17T15:00:01Z,42.805,6.029,13.3016,4.60077,2470.45,2022-6-17T17:01:45Z
2022-06-17T15:03:05Z,42.805,6.029,13.3009,4.60054,2470.474,2022-6-17T17:04:48Z
2022-06-17T15:06:08Z,42.805,6.029,13.3015,4.60054,2470.437,2022-6-17T17:07:51Z
2022-06-17T15:09:11Z,42.805,6.029,13.3008,4.60052,2470.427,2022-6-17T17:10:55Z
2022-06-17T15:12:14Z,42.805,6.029,13.3008,4.60052,2470.437,2022-6-17T17:13:58Z
2022-06-17T15:15:17Z,42.805,6.029,13.3007,4.60049,2470.437,2022-6-17T17:17:01Z